User: anonymous   Login
Location: Unspecified
(0.0000°N, 0.0000°E)
Time: 07:47:28
(UTC+00:00)
Language:

STARLINK-6202 - Orbit

View from above orbital plane
View from above orbital plane
View from above satellite
View from above satellite

Ground track
Ground track

The orbit is defined by the following mean orbital elements,

1 56896U          26145.36732182 +.00000000 +00000-0 +37323-4 0 00009
2 56896  43.0058  15.8779 0001707 275.0254  85.0403 15.27579563    03
Epoch (UTC): 25 May 2026 08:48:56
Eccentricity: 0.0001707
inclination: 43.0058°
perigee height: 482 km
apogee height: 484 km
right ascension of ascending node: 15.8779°
argument of perigee: 275.0254°
revolutions per day: 15.27579563
mean anomaly at epoch: 85.0403°

The dashed part of the orbit path shows where the satellite is in the earth's shadow,  

DLR